Temperature
16 16 16 16 16 16 16 15 15 15 15 15 15 15 15 15 15 14 14 14 14 14 14 14 14 14 14 14 14 13 13 13 13 13 13 13 13 13 12 12 12 12 12
17 16 16 16 16 16 16 16 15 15 15 15 15 15 15 15 14 14 14 14 14 14 14 14 14 13 13 13 13 13 13 13 13 13 13 13 13 13 12 12 12 12 12
17 16 16 16 16 16 16 15 15 15 15 15 15 15 15 14 14 14 14 14 14 14 14 13 13 13 13 13 13 13 13 13 13 13 13 13 13 12 12 12 12 12 12
17 16 16 16 16 16 15 15 15 15 15 15 15 15 14 14 14 14 14 14 14 13 13 13 13 13 13 13 13 13 13 13 12 12 12 12 12 12 12 12 12 12 12
17 16 16 16 16 16 15 15 15 15 15 15 15 14 14 14 14 14 14 13 13 13 13 13 13 13 13 13 12 12 12 12 12 12 12 12 12 12 12 12 12 12 11
17 16 16 16 16 15 15 15 15 15 15 15 15 14 14 14 14 14 14 13 13 13 13 13 13 13 12 12 12 12 12 12 12 12 12 12 11 11 11 11 11 11 11
17 17 16 16 16 15 15 15 15 15 15 15 15 14 14 14 14 14 13 13 13 13 13 13 12 12 12 12 12 12 12 12 11 11 11 11 11 11 11 11 10 10 10
17 17 16 16 16 15 15 15 15 15 15 15 14 14 14 14 14 13 13 13 13 13 12 12 12 12 12 12 11 11 11 11 11 11 11 11 10 10 10 10 10 10 10
17 17 16 16 16 15 15 15 15 15 15 14 14 14 14 14 13 13 13 13 13 12 12 12 12 12 11 11 11 11 11 11 11 10 10 10 10 10 10 10 9 9 9
17 17 16 16 16 16 15 15 15 15 15 14 14 14 14 14 13 13 13 13 13 12 12 12 12 11 11 11 11 11 11 10 10 10 10 10 10 9 9 9 9 9 8
17 17 16 16 16 15 15 15 15 15 14 14 14 14 14 13 13 13 13 12 12 12 12 12 11 11 11 11 10 10 10 10 10 10 10 9 9 9 9 9 8 8 8
17 17 16 16 16 15 15 15 15 14 14 14 14 14 14 13 13 12 12 12 12 12 12 11 11 11 10 10 10 10 10 9 9 9 9 9 9 9 8 8 8 8 7
17 17 16 16 16 15 15 15 14 14 14 14 14 14 13 13 13 12 12 12 12 11 11 11 11 10 10 10 10 9 9 9 9 9 9 8 8 8 8 8 7 7 7
17 17 16 16 15 15 15 15 14 14 14 14 14 13 13 13 12 12 12 11 11 11 11 11 10 10 10 9 9 9 9 8 8 8 8 8 8 7 7 7 7 7 7
17 17 16 16 15 15 15 14 14 14 14 13 13 13 13 13 12 12 11 11 11 11 10 10 10 10 10 9 9 9 8 8 8 8 8 7 7 7 7 6 6 6 6
17 16 16 16 15 15 14 14 14 13 13 13 13 12 12 12 12 11 11 11 11 10 10 10 10 9 9 9 8 8 8 8 7 7 7 7 7 6 6 6 5 5 5
17 16 16 15 15 15 14 14 14 13 13 13 12 12 12 12 11 11 11 10 10 10 9 9 9 9 9 8 8 8 8 7 7 7 6 6 6 6 5 5 5 5 4
16 16 15 15 15 14 14 14 13 13 13 13 12 12 11 11 11 10 10 10 10 9 9 9 9 8 8 8 7 7 7 7 6 6 6 6 5 5 5 4 4 4 4
16 15 15 15 14 14 14 13 13 13 12 12 12 11 11 11 10 10 10 10 9 9 9 8 8 8 7 7 7 7 6 6 6 6 5 5 5 4 4 4 3 3 3
15 15 14 14 14 13 13 13 12 12 12 11 11 11 11 10 10 10 9 9 9 9 8 8 8 7 7 7 6 6 6 5 5 5 5 4 4 4 3 3 3 3 2
15 14 14 14 13 13 13 12 12 12 11 11 11 10 10 10 9 9 9 8 8 8 8 7 7 7 6 6 6 5 5 5 5 4 4 4 4 3 3 3 2 2 2
14 14 14 13 13 12 12 12 12 11 11 10 10 10 9 9 9 9 8 8 8 7 7 7 6 6 6 6 5 5 5 4 4 4 4 3 3 3 3 2 2 2 1
14 14 13 13 12 12 11 11 11 11 10 10 10 9 9 8 8 8 8 7 7 7 6 6 6 6 5 5 5 4 4 4 4 3 3 3 3 2 2 2 2 1 1
13 13 13 12 12 11 11 11 10 10 10 9 9 9 8 8 8 7 7 7 6 6 6 6 5 5 5 5 4 4 4 4 3 3 3 2 2 2 2 1 1 1 0
13 13 12 12 11 11 11 10 10 9 9 9 8 8 8 7 7 7 6 6 6 6 5 5 5 4 4 4 4 4 3 3 3 2 2 2 2 1 1 1 0 0 -0
12 12 12 11 11 11 10 10 9 9 9 8 8 8 7 7 7 6 6 6 5 5 5 4 4 4 4 3 3 3 3 2 2 2 1 1 1 1 0 0 -0 -1 -1
Wind_Speed
6 5 5 4 4 4 3 3 3 2 2 2 3 3 3 3 3 3 3 3 4 3 3 3 3 2 2 2 2 2 2 2 2 2 1 2 2 3 4 5 5 5 6
7 6 5 5 5 4 3 3 3 3 2 2 3 3 3 2 2 3 3 3 3 3 2 3 2 2 3 2 2 2 1 1 2 1 1 2 2 2 3 3 4 4 5
7 7 6 5 5 5 4 4 3 3 2 3 3 3 2 2 2 2 3 3 3 2 2 2 1 3 2 1 2 1 1 1 1 2 1 1 1 2 2 2 3 4 5
8 8 7 6 6 6 5 4 4 4 3 3 2 2 2 2 2 2 3 3 2 2 1 1 1 2 1 1 1 1 1 2 2 2 0 1 1 2 1 2 3 3 3
8 8 8 6 6 5 5 4 4 4 3 3 3 2 2 2 2 3 3 3 2 1 1 1 0 1 1 2 1 1 2 2 2 1 1 1 2 2 1 1 1 3 2
9 8 7 6 6 6 5 4 4 3 3 3 3 2 2 2 3 5 5 3 2 2 0 1 1 1 1 1 1 2 4 3 2 2 1 1 2 2 1 1 1 2 3
9 8 8 8 7 7 6 5 5 4 3 3 3 3 3 3 4 4 5 4 3 2 2 1 0 1 2 2 2 3 2 1 3 3 2 3 3 3 2 1 1 1 3
9 8 8 8 8 7 6 6 5 4 4 3 3 3 3 3 4 5 5 4 2 2 2 2 2 2 1 2 2 1 1 1 1 1 3 3 3 2 3 2 2 1 2
9 9 9 9 9 8 7 6 5 4 4 3 3 4 3 3 4 5 5 3 2 2 2 2 2 2 3 3 3 1 1 2 2 1 0 1 2 3 0 2 1 1 2
10 9 9 9 9 9 8 6 4 4 4 4 3 3 3 3 4 5 5 3 3 2 1 1 2 3 2 3 3 2 2 3 2 2 3 3 4 4 2 1 2 1 1
9 8 8 8 9 8 6 5 5 4 4 3 3 2 2 3 3 4 5 4 4 3 2 2 2 2 3 3 3 3 4 2 0 0 1 2 3 3 3 2 1 3 2
8 8 8 7 7 7 6 5 5 6 5 4 2 1 2 2 3 3 4 5 5 4 3 2 2 2 2 2 2 2 2 1 1 1 1 2 2 2 3 3 3 3 4
8 8 7 7 6 6 7 7 5 5 5 4 3 3 2 2 2 3 4 5 5 3 3 3 3 2 1 0 1 1 1 1 1 0 1 2 2 3 3 3 4 3 3
8 7 7 7 6 5 5 6 6 6 5 5 4 4 3 2 2 2 2 2 3 2 1 1 1 1 1 1 1 1 0 1 2 2 2 2 2 1 2 2 2 2 3
8 7 7 6 6 5 4 4 5 5 7 7 5 5 4 4 5 5 4 3 3 3 2 2 1 1 1 0 1 1 0 0 1 1 2 2 2 2 2 2 2 2 2
8 7 6 5 5 5 5 2 1 2 4 6 6 5 4 5 4 4 4 4 4 5 3 1 1 1 2 2 2 1 1 2 2 2 2 2 2 3 3 2 2 2 4
9 8 6 6 6 5 5 5 3 2 3 2 3 4 4 3 3 3 3 4 4 5 2 2 2 2 2 2 2 2 2 3 2 2 2 3 3 3 3 3 3 3 4
8 8 8 6 6 6 5 5 5 4 2 1 1 1 2 3 3 4 5 5 2 2 2 2 2 2 2 2 2 2 2 2 2 2 2 3 3 3 3 4 4 4 5
8 6 6 6 5 5 5 5 4 4 3 2 1 1 2 3 3 3 4 2 2 2 2 2 2 2 2 2 2 2 2 2 2 2 3 3 3 3 4 4 5 6 6
6 9 9 6 6 5 5 5 4 4 4 3 2 2 1 2 2 1 1 2 2 2 2 2 2 2 2 2 2 2 2 2 2 3 3 3 3 3 4 5 5 5 5
6 7 10 7 6 6 6 5 5 5 4 4 3 3 4 3 3 2 2 2 2 3 2 2 2 2 2 2 2 2 3 3 3 3 4 4 4 4 4 5 5 5 5
7 6 6 6 6 5 5 5 5 5 5 4 2 2 4 3 2 2 2 2 2 2 2 2 2 2 3 3 3 3 3 4 4 4 4 4 4 4 4 4 5 5 5
7 7 6 6 5 6 6 5 4 4 4 4 3 3 3 2 2 2 2 2 2 2 2 2 2 2 2 3 3 3 3 4 4 4 4 4 4 4 4 4 5 6 5
7 8 7 6 6 6 5 5 5 4 4 4 3 3 3 3 2 2 2 1 1 1 1 2 2 2 2 2 3 3 4 5 5 5 5 4 4 4 4 5 5 6 6
7 7 7 6 6 6 6 5 5 5 4 4 3 3 2 2 2 1 1 1 1 1 1 1 1 1 2 3 3 3 5 6 6 6 5 4 4 4 5 5 5 6 6
7 7 6 6 6 6 6 5 5 5 4 4 3 3 3 2 2 1 1 1 1 1 1 1 1 2 2 2 3 4 6 6 7 7 5 4 4 4 5 5 6 6 7
Wind_Direction
168 161 154 160 157 148 152 162 157 144 133 128 127 113 99 90 92 96 90 89 86 69 63 77 65 59 67 70 90 102 108 128 159 286 308 327 351 2 2 11 15 13 12
170 161 164 159 152 152 157 163 155 146 138 130 121 114 110 104 105 112 109 100 99 89 77 81 68 74 65 63 82 95 119 143 155 210 317 337 341 346 351 359 7 9 5
164 162 162 161 161 167 169 162 154 146 137 124 123 131 135 133 129 134 128 116 114 111 105 101 91 91 70 61 72 75 77 92 121 156 280 325 328 345 360 3 9 2 5
165 166 171 178 177 177 170 160 158 153 147 149 152 159 157 150 147 142 128 119 113 101 103 112 120 136 163 147 103 103 98 82 83 92 5 338 328 326 11 360 352 354 351
168 174 183 182 174 166 162 163 157 156 161 162 151 155 157 159 167 157 148 138 132 105 45 1 78 146 159 160 144 157 133 112 99 89 30 352 333 332 325 316 324 327 330
175 184 180 171 168 168 170 164 155 158 160 154 164 170 174 185 165 161 152 146 145 143 149 321 339 9 45 88 130 136 140 143 160 156 197 246 274 264 268 296 328 0 318
181 182 177 175 177 177 171 162 165 169 162 165 181 178 196 211 182 169 166 152 157 173 190 213 339 43 79 86 68 64 65 108 164 169 189 230 245 241 219 260 248 234 257
181 182 179 177 180 175 167 172 177 167 169 183 193 195 201 216 196 184 174 159 166 196 206 204 212 253 180 145 119 81 22 346 296 196 205 232 245 237 204 216 226 261 289
183 186 183 178 176 172 174 181 178 168 179 190 189 191 201 229 206 191 172 157 176 220 231 213 207 223 224 166 138 145 334 320 353 9 272 301 317 320 157 106 61 14 309
191 188 181 177 176 178 183 181 173 174 187 185 192 200 204 227 222 203 181 164 177 213 256 267 236 214 222 182 166 170 226 276 316 4 10 359 1 355 4 162 191 207 267
182 172 171 174 177 178 177 172 165 164 162 170 183 212 217 230 238 217 187 173 183 191 215 256 255 221 221 207 184 190 221 230 216 332 343 343 350 354 356 349 223 196 213
162 166 173 175 176 172 162 163 158 157 159 169 177 229 256 249 238 230 207 196 181 179 208 226 220 199 195 200 193 209 222 151 102 57 359 327 321 316 311 325 310 261 236
157 167 169 164 164 161 161 162 158 160 165 177 181 209 248 257 249 236 223 207 193 188 203 200 195 180 150 49 232 223 190 140 139 163 275 278 274 283 312 326 334 322 311
159 162 157 155 156 159 163 167 169 174 177 183 190 208 230 250 248 230 204 189 179 179 186 157 128 97 94 83 10 354 130 181 184 219 254 270 288 305 308 301 306 315 316
156 156 155 156 156 156 159 174 183 194 189 188 200 196 197 227 236 203 181 187 185 177 139 103 81 72 69 6 339 320 266 224 244 244 250 278 294 300 294 288 286 295 290
155 158 159 157 157 155 150 125 87 169 186 190 189 184 204 215 222 203 193 187 173 154 128 140 185 206 216 226 237 264 259 242 242 242 251 262 277 285 293 297 288 280 282
160 161 158 158 159 160 160 157 146 57 68 114 167 177 181 182 182 175 160 148 147 141 140 177 199 218 227 229 227 231 250 255 243 236 250 262 271 278 282 289 289 288 287
155 158 158 162 163 165 167 166 162 158 145 36 11 133 169 155 147 140 127 109 94 109 175 199 214 224 229 230 233 237 253 268 260 253 257 267 267 274 282 285 283 281 286
156 158 157 155 156 158 156 152 150 153 153 151 111 57 97 116 110 111 117 125 166 195 210 216 221 227 234 237 237 236 239 250 260 260 266 267 269 271 276 280 283 286 286
159 158 154 152 152 149 148 147 150 154 159 162 171 178 135 101 103 103 131 167 183 206 214 220 230 232 234 238 240 240 246 257 265 264 268 271 274 271 276 282 283 286 285
153 156 152 148 156 160 159 161 163 163 169 175 189 188 165 156 169 177 184 194 204 215 220 224 229 232 234 237 242 244 250 263 266 270 274 274 274 273 275 277 280 284 290
152 153 155 156 158 160 162 163 162 163 167 167 169 157 162 150 160 170 188 214 221 219 211 210 223 230 228 232 239 245 257 269 274 274 275 276 277 278 280 282 286 287 291
151 151 151 152 153 154 152 151 154 159 163 167 166 158 157 170 178 185 201 215 214 212 198 191 211 242 252 253 247 240 252 265 271 272 274 281 283 283 283 283 285 291 293
155 156 156 155 153 154 156 159 160 161 163 165 166 167 172 179 184 193 203 203 191 193 200 202 213 234 256 274 279 276 278 282 284 280 274 274 279 284 285 286 287 287 290
156 156 157 158 159 160 159 161 162 163 165 167 167 166 165 164 170 183 195 189 186 193 211 214 220 243 264 276 286 296 301 304 303 301 294 287 284 286 288 288 290 294 293
154 154 155 156 157 158 160 163 164 164 165 167 166 166 168 169 175 185 199 194 196 204 223 230 238 259 284 299 305 314 320 319 315 311 309 298 287 285 288 287 293 294 294
Height
1555 1557 1559 1560 1562 1562 1563 1564 1564 1565 1565 1565 1565 1565 1565 1565 1565 1564 1564 1564 1564 1563 1563 1563 1563 1563 1563 1563 1563 1562 1562 1562 1561 1561 1561 1561 1560 1560 1559 1558 1557 1555 1554
1553 1556 1558 1559 1561 1562 1563 1564 1564 1564 1565 1565 1565 1565 1565 1565 1565 1565 1565 1564 1564 1564 1564 1563 1563 1563 1563 1563 1562 1562 1562 1562 1561 1561 1560 1560 1560 1559 1558 1557 1556 1555 1554
1552 1554 1556 1558 1559 1561 1562 1563 1564 1564 1565 1565 1565 1565 1565 1565 1565 1565 1565 1564 1564 1564 1564 1564 1563 1563 1563 1562 1562 1562 1561 1561 1561 1560 1560 1559 1559 1558 1557 1556 1555 1554 1553
1549 1552 1554 1556 1558 1560 1561 1562 1563 1563 1564 1565 1565 1565 1565 1565 1565 1565 1565 1564 1564 1564 1564 1563 1563 1562 1562 1562 1561 1561 1561 1560 1560 1559 1559 1558 1558 1557 1556 1555 1554 1553 1552
1547 1549 1552 1554 1556 1558 1559 1561 1562 1562 1563 1564 1564 1564 1564 1564 1564 1564 1564 1564 1564 1563 1563 1562 1562 1562 1561 1561 1560 1560 1559 1559 1559 1558 1557 1557 1556 1555 1554 1553 1552 1551 1550
1544 1547 1549 1552 1554 1556 1558 1559 1560 1561 1562 1563 1563 1563 1563 1563 1563 1563 1563 1563 1563 1562 1562 1561 1561 1560 1560 1560 1559 1558 1558 1557 1557 1556 1556 1555 1554 1553 1552 1551 1550 1549 1547
1541 1544 1547 1549 1551 1553 1555 1557 1558 1559 1560 1561 1561 1562 1562 1562 1562 1562 1562 1562 1561 1561 1560 1560 1559 1559 1559 1558 1557 1557 1556 1556 1555 1555 1554 1553 1552 1551 1550 1549 1548 1547 1545
1538 1541 1543 1546 1548 1550 1552 1554 1556 1557 1558 1559 1560 1560 1560 1560 1560 1560 1560 1560 1559 1559 1558 1558 1558 1557 1557 1556 1556 1555 1554 1554 1553 1552 1551 1551 1550 1549 1548 1547 1545 1544 1543
1535 1537 1540 1543 1545 1548 1549 1551 1553 1555 1556 1557 1557 1558 1558 1558 1558 1558 1558 1557 1557 1557 1556 1556 1556 1555 1555 1554 1553 1553 1552 1551 1551 1550 1549 1548 1547 1546 1545 1544 1542 1541 1539
1532 1535 1538 1540 1543 1545 1547 1549 1551 1552 1554 1554 1555 1555 1556 1556 1556 1556 1556 1555 1555 1554 1554 1554 1554 1553 1553 1552 1551 1550 1549 1549 1548 1547 1547 1546 1545 1543 1542 1541 1539 1538 1536
1530 1533 1535 1538 1540 1543 1545 1547 1548 1550 1551 1552 1552 1553 1553 1553 1553 1553 1553 1552 1552 1552 1552 1551 1551 1551 1550 1549 1549 1548 1547 1546 1545 1544 1543 1542 1541 1540 1539 1537 1536 1535 1533
1527 1530 1533 1535 1538 1540 1542 1544 1545 1547 1548 1549 1549 1550 1550 1550 1550 1550 1550 1550 1549 1549 1549 1549 1548 1548 1547 1547 1546 1545 1544 1543 1542 1541 1540 1539 1538 1537 1535 1534 1533 1531 1529
1525 1527 1530 1533 1535 1537 1539 1541 1542 1544 1545 1546 1546 1547 1547 1548 1547 1547 1547 1547 1547 1546 1546 1546 1545 1545 1544 1543 1543 1542 1541 1540 1539 1538 1536 1535 1534 1533 1532 1530 1529 1527 1526
1522 1525 1527 1529 1532 1534 1536 1537 1539 1540 1541 1543 1543 1544 1544 1545 1545 1544 1544 1544 1544 1544 1543 1543 1542 1541 1541 1540 1539 1539 1538 1537 1536 1534 1533 1532 1531 1529 1528 1526 1524 1522 1520
1520 1522 1524 1526 1529 1531 1532 1534 1536 1537 1539 1540 1541 1541 1541 1541 1542 1542 1542 1541 1541 1541 1540 1539 1539 1538 1537 1537 1536 1535 1534 1533 1532 1531 1530 1528 1527 1525 1523 1522 1520 1518 1516
1517 1519 1521 1524 1526 1528 1529 1531 1533 1534 1536 1537 1538 1538 1538 1539 1539 1539 1539 1538 1538 1538 1537 1536 1535 1534 1534 1533 1532 1531 1530 1529 1528 1527 1526 1524 1522 1521 1519 1517 1515 1513 1511
1514 1517 1519 1521 1523 1525 1526 1528 1529 1531 1532 1533 1534 1535 1535 1535 1536 1536 1535 1535 1535 1534 1533 1532 1532 1531 1530 1529 1529 1528 1527 1526 1524 1523 1521 1520 1518 1516 1514 1512 1510 1508 1506
1512 1514 1516 1518 1520 1522 1523 1525 1526 1528 1529 1530 1531 1532 1532 1532 1533 1533 1532 1532 1531 1531 1530 1529 1528 1527 1526 1526 1525 1524 1523 1521 1520 1518 1517 1515 1514 1512 1510 1508 1506 1504 1501
1509 1511 1513 1515 1517 1519 1520 1522 1523 1525 1526 1527 1528 1528 1529 1529 1530 1530 1529 1528 1528 1527 1526 1526 1525 1524 1523 1522 1521 1520 1519 1517 1516 1514 1512 1511 1509 1507 1505 1503 1501 1499 1497
1506 1508 1510 1512 1514 1516 1517 1519 1520 1522 1523 1524 1524 1525 1526 1526 1526 1526 1525 1525 1524 1524 1523 1522 1522 1521 1520 1519 1517 1516 1514 1513 1511 1509 1508 1506 1504 1502 1500 1498 1496 1493 1491
1503 1505 1507 1509 1511 1512 1514 1515 1517 1518 1519 1520 1521 1522 1522 1522 1522 1522 1522 1522 1521 1520 1520 1519 1518 1517 1516 1515 1513 1512 1510 1508 1506 1505 1503 1501 1499 1497 1495 1493 1491 1488 1486
1500 1502 1504 1505 1507 1509 1511 1512 1514 1515 1516 1517 1518 1519 1519 1519 1519 1519 1519 1518 1518 1517 1516 1515 1514 1513 1512 1511 1509 1507 1505 1504 1502 1500 1498 1496 1494 1492 1490 1488 1485 1483 1480
1497 1499 1500 1502 1504 1506 1508 1509 1510 1512 1513 1514 1514 1515 1515 1515 1515 1515 1515 1515 1514 1513 1513 1512 1510 1509 1508 1507 1505 1503 1501 1499 1497 1495 1493 1491 1489 1487 1485 1482 1480 1477 1475
1493 1495 1497 1499 1501 1503 1504 1506 1507 1508 1509 1510 1511 1511 1512 1512 1512 1512 1511 1511 1510 1509 1509 1508 1507 1505 1504 1502 1501 1499 1497 1495 1493 1491 1488 1486 1484 1482 1479 1477 1474 1472 1470
1490 1492 1493 1495 1497 1499 1500 1502 1503 1504 1506 1506 1507 1508 1508 1508 1508 1508 1507 1507 1506 1506 1505 1504 1503 1501 1500 1498 1497 1495 1493 1491 1488 1486 1484 1481 1479 1476 1474 1472 1469 1467 1465
1486 1488 1490 1492 1493 1495 1496 1498 1499 1500 1501 1502 1503 1504 1504 1504 1504 1504 1504 1503 1502 1502 1501 1500 1499 1497 1496 1494 1492 1490 1488 1486 1484 1482 1479 1477 1474 1472 1469 1467 1464 1462 1460